Location: Unspecified
(0.0000°N, 0.0000°E)
Time: 17:12:48
(UTC+00:00)

Vanguard 2 Rocket - Pass Details

Date: 13 December 2018
Orbit: 554 x 3326 km, 32.9° (Epoch: 17 June)

Event Time Altitude Azimuth Distance (km) Brightness Sun altitude
Rises 15:29:24 0° 293° (WNW) 5,248 11.3 32.9°
Reaches altitude 10° 15:32:22 10° 290° (WNW) 4,562 11.2 32.2°
Maximum altitude 15:46:07 61° 213° (SSW) 3,147 10.6 29.2°
Drops below altitude 10° 16:06:03 10° 136° (SE) 6,287 11.1 24.7°
Sets 16:11:05 0° 132° (SE) 7,256 11.3 23.6°
